Location: Gerlach
(40.6516°N, 119.3568°W)
Time: 07:17:37
(UTC-08:00)

deb Explorer IX - Visible Passes

Search period start: 27 January 2023 00:00
Search period end: 06 February 2023 00:00
Orbit: 533 x 1050 km, 38.8° (Epoch: 24 January)

Date Brightness Start Highest point End Pass type
(mag) Time Alt. Az. Time Alt. Az. Time Alt. Az.
27 Jan ? 05:50:35 10° SSW 05:53:43 22° SSE 05:56:55 10° E visible
28 Jan ? 05:18:53 12° SSW 05:21:23 20° SSE 05:24:22 10° ESE visible
29 Jan ? 04:48:34 18° SSE 04:49:01 18° SSE 04:51:48 10° ESE visible
29 Jan ? 06:30:39 10° WSW 06:34:32 51° SSE 06:38:35 10° E visible
30 Jan ? 04:18:06 14° SE 04:18:06 14° SE 04:19:13 10° ESE visible
30 Jan ? 05:58:46 13° WSW 06:02:08 48° SSE 06:06:05 10° E visible
31 Jan ? 05:28:09 29° SW 05:29:43 45° SSE 05:33:35 10° E visible
01 Feb ? 04:57:27 42° SSE 04:57:27 42° SSE 05:01:05 10° E visible
02 Feb ? 04:26:39 25° ESE 04:26:39 25° ESE 04:28:35 10° E visible
02 Feb ? 06:07:18 15° W 06:10:36 68° S 06:14:37 10° E visible
03 Feb ? 03:55:47 12° E 03:55:47 12° E 03:56:05 10° E visible
03 Feb ? 05:36:26 33° WSW 05:38:05 68° S 05:42:05 10° E visible
04 Feb ? 05:05:31 67° S 05:05:33 67° S 05:09:32 10° E visible
05 Feb ? 04:34:33 35° ESE 04:34:33 35° ESE 04:37:01 10° E visible
05 Feb ? 06:15:11 12° W 06:18:51 54° SSW 06:22:47 10° ESE visible
